Weather in Makhrovka

Russia / Voronezh Oblast     51°33′13″N   42°23′20″E
temp.,
°C
wind,
m/s
gust,
m/s
humid.,
%
clouds,
%
prec.,
mm/h
press.,
hPa
HPBL,
m
3 march, wed
wed300:000wnw4995100 0.1 1008409
03:000nw51094100 0.4 1009398
06:00−2nw699495 0.0 1009500
09:00−1nw599297 0.2 1012725
12:00−1nnw7984100 0.3 1013971
15:00−2nw698588 0.3 1015769
18:00−5wnw4109043 0.0 1017230
21:00−7wnw4119137 0.0 1018221
4 march, thu
thu400:00−6wsw49940 0.0 1016191
03:00−3wsw5119345 0.0 1015373
06:00−1wsw61292100 0.1 1013729
09:00−1wsw71390100 0.1 1012666
12:00+1wsw8149262 0.0 1010654
15:00+1sw7158862 0.0 1009762
18:000sw616786 0.0 1007498
21:00+1sw7178221 0.0 1006586
5 march, fri
fri500:00+2sw7168599 0.0 1004603
03:00+2sw71597100 0.1 1003564
06:00+2wsw61399100 0.4 1003501
09:00+1w51299100 1.4 1004535
12:00+1w61299100 0.3 1005663
15:00+1w41097100 0.4 1008618
18:00−1n2594100 0.1 1009177
21:00−2ne3697100 1.0 1010283
6 march, sat
sat600:00−3ne4796100 1.3 1010353
03:00−4nne4796100 2.3 1010321
06:00−5n4794100 0.2 1012249
09:00−6n469197 0.2 1013262
12:00−4nnw468582 0.0 1015564
15:00−3nw467946 0.0 1015729
18:00−6nw34880 0.0 101570
21:00−8nw23880 0.0 101732
7 march, sun
sun700:00−9nw12860 0.0 101721
03:00−9nne018644 0.0 101721
06:00−8s339586 0.2 101783
09:00−7ssw479582 0.3 1017280
12:00−3sw7117295 0.0 10141131
15:00−3sw8147195 0.0 10111180
18:00−3sw8167198 0.0 1009862
21:00−3sw8177099 0.0 1007885